Zurück zum Katalog

COSMOS 2251 DEB

AktivVLEO
NORAD 33821·DEBRIS·🇷🇺 Russia

Gestartet Jun 16, 1993 von Plesetsk Cosmodrome

Loading…

Nächste Überflüge (nächste 24 Stunden)

TLE

AktuellSource: Space-Track

Epoche: Sep 14, 2026, 10:40 UTC

1 33821U 93036BN  26257.44487865  .00030232  00000-0  64308-3 0  9990
2 33821  74.0207 271.1526 0034735 235.3940 124.3992 15.44176559792310

Verfolge COSMOS 2251 DEB in Echtzeit mit AllMySat

Download on the App Store